Regional Weather Roundup
Issued by NWS

Home | Current Version | Previous Version | Graphics & Text | Print | Product List | Glossary On
Versions: 1 2 3 4 5 6 7 8 9 10 11 12 13 14 15 16 17 18 19 20 21 22 23 24 25 26 27 28 29 30 31 32 33 34 35 36 37 38 39 40 41 42 43 44 45 46 47 48 49 50
000
ASUS43 KLMK 271410
RWRKY
KENTUCKY REGIONAL WEATHER ROUNDUP
NATIONAL WEATHER SERVICE LOUISVILLE KY
1000 AM EDT MON JUL 27 2015

NOTE "FAIR" INDICATES FEW OR NO CLOUDS BELOW 12,000 FEET
WITH NO SIGNIFICANT WEATHER AND/OR OBSTRUCTIONS TO VISIBILITY.

KYZ001>023-026-027-061>063-070>075-271500-
WESTERN AND SOUTH CENTRAL KENTUCKY

CITY           SKY/WX    TMP DP  RH WIND       PRES   REMARKS
PADUCAH        MOSUNNY   78  75  90 E6        29.99R FOG
HENDERSON      PTSUNNY   81  73  78 SW3       29.97R
OWENSBORO      PTSUNNY   79  76  90 SW6       30.00R FOG
HOPKINSVILLE   MOSUNNY   84  76  78 W6        30.00R HX  93
BOWLING GREEN  CLOUDY    82  73  74 CALM      30.01R
GLASGOW        MOSUNNY   81  73  75 S3        30.00S
$$

KYZ024-025-028>034-038-045-046-053-271500-
NORTH CENTRAL KENTUCKY

CITY           SKY/WX    TMP DP  RH WIND       PRES   REMARKS
LOUISVILLE/SDF CLOUDY    80  72  76 VRB7      30.00R
LOUISVILLE/LOU PTSUNNY   81  71  71 W12       30.01R
FORT KNOX      PTSUNNY   78  72  83 NW6       29.99S
$$

KYZ035>037-039>044-047>052-055>060-089>105-271500-
NORTHEAST KENTUCKY

CITY           SKY/WX    TMP DP  RH WIND       PRES   REMARKS
LEXINGTON      MOSUNNY   80  75  84 VRB3      30.02R HAZE
COVINGTON      CLOUDY    76  72  87 E3        30.01R FOG
FRANKFORT      PTSUNNY   81  71  71 NW5       30.00R
$$

KYZ054-064>069-076>088-106>120-271500-
SOUTHEAST KENTUCKY

CITY           SKY/WX    TMP DP  RH WIND       PRES   REMARKS
JACKSON        MOSUNNY   79  72  79 CALM      30.04R
LONDON         MOSUNNY   79  69  71 SW3       30.04R
SOMERSET       PTSUNNY   77  73  88 CALM      30.04R
MIDDLESBORO    MOSUNNY   76  73  88 CALM      30.05S
MONTICELLO     MOSUNNY   80  74  82 CALM      30.06R
$$




USA.gov is the U.S. government's official web portal to all federal, state and local government web resources and services.